Thursday, September 18, 2014

SilverExpress Flight Center

image image image image
* * * *
Text Size

FAA Approved Pilot school in Miami Florida for Professional pilot training

Silver Express Flight Center

Silver Express has been South Florida's premier flight training academy for over 25 years. Whether you are pursuing a career in aviation or simply want to make a dream come true, Silver Express has the aircraft, Instructors and experience to make it happen for you.

Silver Express students fly the best airplanes from top manufacturers - and have access to state of the art flight simulators to expand their knowledge and skills.

 

Become a pilot where the professionals train.

 


 Boeing releases the 2012 Pilot Hiring Forecast projecting 460,000 new pilot jobs through 2031 with 69,000 in North America.

Read the full article

boeing

    

 

 

airplane-cockpit-1920x1200

 Airline Pilots earn over $150,000 per year. How much will you earn in your career?

 Miami: (305)255-8753 Toll Free (US) (866)772-9361
Kendal Tamiami Executive Airport 14569 sw 127 St Miami FL 33186

miami pilot schools 33186,professional pilot training in miami

Aviation WX

[source: ADDS]
METAR
KTMB 181253Z 00000KT 10SM CLR 26/23 A2995 RMK AO2 SLP140 T02610228 =
TAF
KTMB 181139Z 1812/1912 VRB05KT P6SM VCSH FEW035 SCT080 FM181900 26006KT P6SM VCTS SCT035CB SCT150 FM190000 VRB02KT P6SM FEW035 SCT250 =